Follow iAlert.com on twitter @ialertcom
Search For Active Alerts in Your Area  
  Hi Guest:  [ Sign-up / Services ] [ Login ]

Current weather by "City, St" or "zip code"  
 

Advertise Here

Current Conditions: Cherry Capital Airport, MI

Light Rain


53.0 F

Last Updated on Oct 23 2017, 1:53 pm EDT
Humidity: 89%
Wind Speed: E 3.5 mph
Barometer 29.77 in
Dewpoint: 50.0 F
Visibility: 9.00 mi
Precip: Trace
Heat Index: NA
Wind Chill: NA
Current conditions at:

Cherry Capital Airport, MI (KTVC)

Lat: 44.73 Lon: 85.567

Local Radar Image active severe weather and emergency alerts image image weather storm and storm spotter reports image weather observation monitoring service image
Local
Radar
Active
Alerts
Storm Reports Obs
Monitoring

iAlert Weather and Emergency Alert Notification Services:


ialert severe weather and emergency alerts by text message and email ialert daily weather forecast by email and text message service ialert real-time weather-observation monitoring and alert notification service ialert storm report monitoring alert notification

Observation History for Cherry Capital Airport, MI


Time Wind
(mph)
Vis
(mi)
Weather Precip (in) Temperature (F) Relative
Humidity
Wind
Chill
(°F)
Heat
Index
(°F)
Pressure
Air Dwpt altimeter
(in)
sea level
(mb)
1:53 pm EDT E 3.5 9.00 Light Rain Trace 53.0 50.0 89% NA NA 29.77 1008.3
12:53 pm EDT E 4.6 10.00 Overcast 00.02 53.0 50.0 89% 52 NA 29.79 1008.9
11:53 am EDT E 4.6 8.00 Light Rain 00.06 52.0 50.0 93% 51 NA 29.82 1010.0
10:53 am EDT N 0.0 6.00 Light Rain Fog/Mist 00.04 52.0 48.9 89% NA NA 29.85 1010.9
9:53 am EDT N 0.0 7.00 Light Rain 00.04 52.0 50.0 93% NA NA 29.90 1012.6
8:53 am EDT E 3.5 5.00 Light Rain Fog/Mist -- 52.0 50.0 93% NA NA 29.90 1012.6
7:53 am EDT N 0.0 5.00 Light Rain Fog/Mist 00.15 52.0 50.0 93% NA NA 29.92 1013.3
6:53 am EDT W 5.8 4.00 Rain Fog/Mist 00.15 52.0 50.0 93% 50 NA 29.94 1014.2
5:53 am EDT NW 3.5 7.00 Light Rain 00.09 53.0 51.1 93% NA NA 29.94 1014.0
4:53 am EDT N 3.5 7.00 Light Rain 00.13 53.0 50.0 89% NA NA 29.94 1013.9
3:53 am EDT N 0.0 7.00 Light Rain 00.06 53.0 51.1 93% NA NA 29.97 1014.7
2:53 am EDT NW 4.6 6.00 Light Rain Fog/Mist 00.09 53.0 51.1 93% 52 NA 29.97 1014.9
1:53 am EDT N 0.0 5.00 Rain Fog/Mist 00.07 53.0 51.1 93% NA NA 29.98 1015.2
12:53 am EDT N 3.5 6.00 Light Rain Fog/Mist 00.01 53.0 51.1 93% NA NA 29.97 1014.7
11:53 pm EDT NW 5.8 10.00 Light Rain 00.01 53.0 51.1 93% 51 NA 29.99 1015.6
10:53 pm EDT N 4.6 7.00 Light Rain 00.02 53.0 51.1 93% 52 NA 30.00 1015.7
9:53 pm EDT N 0.0 6.00 Light Rain Fog/Mist 00.07 53.0 51.1 93% NA NA 30.00 1015.7
8:53 pm EDT N 4.6 5.00 Light Rain Fog/Mist 00.09 54.0 51.1 90% 53 NA 30.01 1016.2
7:53 pm EDT NW 5.8 5.00 Light Rain Fog/Mist 00.03 54.0 51.1 90% 53 NA 30.00 1015.9
6:53 pm EDT NW 5.8 2.00 Light Rain Fog/Mist 00.01 54.0 51.1 90% 53 NA 29.99 1015.7
5:53 pm EDT NW 8.1 3.00 Light Rain 00.03 56.0 52.0 87% 54 NA 29.96 1014.6
4:53 pm EDT W 15.0 1.75 Light Rain Fog/Mist 00.14 59.0 55.0 87% 56 NA 29.94 1013.7
3:53 pm EDT 5.8 2.50 Light Rain Fog/Mist 00.05 66.0 63.0 90% NA NA 29.89 1012.1
2:53 pm EDT SW 9.2 5.00 Light Rain 00.05 67.0 62.1 84% NA NA 29.89 1011.8

Regional Weather Observation


Bellaire, Antrim County Airport, MI (KACB)

Light Rain
50.0 F

Frankfort, Frankfort Dow Memorial Field Airport, MI (KFKS)

Partly Cloudy
53.0 F

Charlevoix, Charlevoix Municipal Airport, MI (KCVX)

Overcast
51.0 F

Wexford County Airport, MI (KCAD)

Rain
49.0 F

Manistee County - Blacker Airport, MI (KMBL)

Mostly Cloudy
52.0 F

Beaver Island, Beaver Island Airport, MI (KSJX)

Mostly Cloudy
55.0 F

Advertise Here